Weather in Stoyantsy

Russia / Tver Oblast     56°59′14″N   36°49′00″E
temp.,
°C
wind,
m/s
gust,
m/s
humid.,
%
clouds,
%
prec.,
mm/h
press.,
hPa
HPBL,
m
8 march, mon
mon800:00−10wsw399045 0.0 993228
03:00−8wsw499473 0.3 993696
06:00−8w2795100 0.7 995432
09:00−9n4891100 0.8 998402
12:00−8nnw4785100 0.0 1002585
15:00−7nnw4783100 0.1 1004961
18:00−10nnw3890100 0.1 1007521
21:00−12nnw31094100 0.1 1010348
9 march, tue
tue900:00−15nnw279786 0.0 1012176
03:00−17nnw259776 0.0 101495
06:00−20nnw259815 0.0 1016130
09:00−19n369216 0.0 1017271
12:00−16nnw358382 0.0 1019515
15:00−14nnw358091 0.0 1020654
18:00−17n2691100 0.0 1021205
21:00−20n269674 0.0 1024172
10 march, wed
wed1000:00−23n24970 0.0 102681
03:00−25n24970 0.0 102799
06:00−26n23970 0.0 102970
09:00−23n24900 0.0 1030205
12:00−16n23710 0.0 1031399
15:00−13nw23690 0.0 1030681
18:00−15wnw23870 0.0 103046
21:00−18wnw23890 0.0 103159
11 march, thu
thu1100:00−18wnw23911 0.0 103144
03:00−19wnw229531 0.0 103224
06:00−20wnw12973 0.0 103220
09:00−17w12912 0.0 1033121
12:00−11w22760 0.0 1032419
15:00−9wsw23732 0.0 1031618
18:00−12ssw23850 0.0 103035
21:00−15ssw23880 0.0 103064
12 march, fri
fri1200:00−16ssw310900 0.0 1029210
03:00−17ssw39900 0.0 1028244
06:00−18ssw39840 0.0 1028256
09:00−15s49760 0.0 1027285
12:00−9s49810 0.0 1025463
15:00−5s611770 0.0 1023752
18:00−7s513810 0.0 1021733
21:00−9s6158611 0.0 1020709